{"data":{"norad_id":64419,"intl_designator":"2025-129H","name":"STARLINK-34512","alt_names":[],"object_type":"PAYLOAD","status":"ACTIVE","operator":null,"country":"US","launch_date":"2025-06-17","launch_site_code":"AFWTR","launch_vehicle":null,"mission":null,"orbit_class":"UNKNOWN","rcs_meters":null,"size_class":null,"mass_kg":null,"dimensions":null,"purposes":["comms"],"wikipedia_slug":null,"has_3d_model":false,"image_url":null,"decayed_at":null,"tle_current":{"epoch":"2026-05-24T23:43:56.817120Z","epoch_age_seconds":72066,"freshness":"FRESH","line1":"1 64419U 25129H   26144.98885205  .00002344  00000+0  20416-3 0  9993","line2":"2 64419  70.0008 242.1736 0003424 266.6839  93.3928 14.98334401 52658","mean_motion":14.98334401,"eccentricity":0.0003424,"inclination_deg":70.0008,"raan_deg":242.1736,"arg_perigee_deg":266.6839,"mean_anomaly_deg":93.3928,"bstar":0.00020416,"rev_number":5265,"period_min":96.106716834302,"perigee_km":569.66253986237,"apogee_km":574.42202263417,"semimajor_km":6950.1792812483,"source":"CELESTRAK","updated_at":"2026-05-25T13:38:20.439670Z"}}}